Weather History for FAUP - January, 2013

Change the Weather History Date:

Tuesday, January 22, 2013

  Actual Average Record
Temperature  
Mean Temperature 88 °F -  
Max Temperature 103 °F 93 °F 105 °F (1998)
Min Temperature 73 °F 65 °F 66 °F (2009)
Cooling Degree Days 23    
Growing Degree Days 38 (Base 50)    
Moisture  
Dew Point 43 °F    
Average Humidity 20    
Maximum Humidity 41    
Minimum Humidity 6    
Precipitation  
Precipitation 0.00 in 0.04 in - ()
Sea Level Pressure  
Sea Level Pressure 29.96 in    
Wind  
Wind Speed 5 mph ()    
Max Wind Speed 10 mph    
Max Gust Speed -    
Visibility 6.2 miles    
Events      
Averages and records for this station are not official NWS values.
T = Trace of Precipitation, MM = Missing Value Source: Averaged Metar Reports

Daily Weather History Graph

Daily Weather History Graph

Search for Another Location

Airport or City:

Trip Planner

Search our weather history database for the weather conditions in past years. The results will help you decide how hot, cold, wet, or windy it might be!

Date:

Astronomy

Jan. 22, 2013 Rise Set
Actual Time 5:57 AM SAST 7:34 PM SAST
Civil Twilight 5:32 AM SAST 8:00 PM SAST
Nautical Twilight 5:01 AM SAST 8:31 PM SAST
Astronomical Twilight 4:28 AM SAST 9:04 PM SAST
Moon 3:55 PM SAST (1/22) 1:55 AM SAST (1/22)
Length of Visible Light 14h 28m
Length of Day
13h 37m
Waxing Gibbous, 80% of the Moon is Illuminated
Jan 22
Waxing Gibbous
Jan 27
Full
Feb 3
Last Quarter
Feb 10
New
Feb 17
First Quarter

Hourly Weather History & Observations

Time (SAST) Temp. Dew Point Humidity Pressure Visibility Wind Dir Wind Speed Gust Speed Precip Events Conditions
12:00 AM 80.6 °F 50.0 °F 34% 29.95 in - SSE 3.5 mph - N/A   Unknown
1:00 AM 80.6 °F 48.2 °F 32% 29.95 in - ENE 1.2 mph - N/A   Clear
2:00 AM 78.8 °F 50.0 °F 36% 29.95 in - East 2.3 mph - N/A   Clear
3:00 AM 77.0 °F 51.8 °F 41% 29.95 in - East 4.6 mph - N/A   Clear
4:00 AM 77.0 °F 41.0 °F 28% 29.95 in - East 5.8 mph - N/A   Clear
5:00 AM 76 °F 44 °F 21%  in 25 mi ESE 5.8 mph - -  
5:00 AM 75.2 °F 42.8 °F 31% 29.95 in - ESE 4.6 mph - N/A   Clear
6:00 AM 73.4 °F 46.4 °F 38% 29.98 in - SE 3.5 mph - N/A   Clear
6:44 AM 78.8 °F 46.4 °F 32% 30.01 in - East 2.3 mph - N/A   Clear
7:00 AM 78.8 °F 42.8 °F 28% 30.01 in - East 2.3 mph - N/A   Clear
8:00 AM 84 °F 43 °F 14%  in 25 mi East 5.8 mph - -  
8:00 AM 84.2 °F 42.8 °F 23% 30.01 in - East 5.8 mph - N/A   Clear
8:26 AM 87.8 °F 41.0 °F 19% 30.01 in - East 8.1 mph - N/A   Clear
9:00 AM 87.8 °F 41.0 °F 19% 30.01 in - East 10.4 mph - N/A   Clear
10:00 AM 91.4 °F 42.8 °F 18% 30.01 in - East 8.1 mph - N/A   Clear
11:00 AM 96 °F 43 °F 9%  in 25 mi East 9.2 mph - -  
11:00 AM 95.0 °F 42.8 °F 16% 29.98 in - East 8.1 mph - N/A   Clear
12:00 PM 96.8 °F 42.8 °F 16% 29.98 in - ESE 6.9 mph - N/A   Clear
1:00 PM 96.8 °F 41.0 °F 15% 29.98 in 6.2 mi South 5.8 mph - N/A   Partly Cloudy
2:00 PM 99 °F 41 °F 7%  in 25 mi SSE 8.1 mph - -   Scattered Clouds
2:00 PM 98.6 °F 39.2 °F 13% 29.95 in 6.2 mi SSE 8.1 mph - N/A   Partly Cloudy
3:00 PM 100.4 °F 39.2 °F 12% 29.92 in - SE 6.9 mph - N/A   Unknown
4:00 PM 100.4 °F 39.2 °F 12% 29.92 in 6.2 mi SE 6.9 mph - N/A   Partly Cloudy
5:00 PM 100 °F 39 °F 6%  in 25 mi South 9.2 mph - -   Scattered Clouds
5:00 PM 98.6 °F 39.2 °F 13% 29.89 in 6.2 mi South 8.1 mph - N/A   Partly Cloudy
6:00 PM 100.4 °F 37.4 °F 11% 29.89 in 6.2 mi South 8.1 mph - N/A   Partly Cloudy
7:00 PM 98.6 °F 39.2 °F 13% 29.89 in 6.2 mi South 6.9 mph - N/A   Partly Cloudy
8:00 PM 90 °F 40 °F 10%  in 25 mi SSW 4.6 mph - -   Scattered Clouds
8:00 PM 89.6 °F 39.2 °F 17% 29.92 in 6.2 mi SSW 4.6 mph - N/A   Partly Cloudy
9:00 PM 87.8 °F 42.8 °F 21% 29.92 in - South 3.5 mph - N/A   Clear
10:00 PM 86.0 °F 44.6 °F 23% 29.95 in - ESE 3.5 mph - N/A   Clear